Zurück zum Katalog

ICEYE-X75

AktivWissenschaftSSO
NORAD 68497·PAYLOAD·🇵🇱 Poland

Gestartet Mar 30, 2026 von Vandenberg Space Force Base

Loading…

Nächste Überflüge (nächste 24 Stunden)

TLE

AktuellSource: Space-Track

Epoche: Sep 14, 2026, 14:55 UTC

1 68497U 26067CK  26257.62202147  .00000995  00000-0  10295-3 0  9994
2 68497  97.7689 214.6082 0002451  49.5764 310.5669 14.92278581 25062

Verfolge ICEYE-X75 in Echtzeit mit AllMySat

Download on the App Store